Weather reports worldwide

Advertisment
List/Sylt, Germany (10020): temperature & dewpoint: 10.01.2021 06:00:00 - 16.01.2021 06:00:00 (CET)List/Sylt, Germany (10020): temperature 5cm & temperature -5cm: 10.01.2021 06:00:00 - 16.01.2021 06:00:00 (CET)List/Sylt, Germany (10020): temperature -20cm: 10.01.2021 06:00:00 - 16.01.2021 06:00:00 (CET)List/Sylt, Germany (10020): wind speed & gusts: 10.01.2021 06:00:00 - 16.01.2021 06:00:00 (CET)List/Sylt, Germany (10020): wind direction: 10.01.2021 06:00:00 - 16.01.2021 06:00:00 (CET)List/Sylt, Germany (10020): reduced air pressure: 10.01.2021 06:00:00 - 16.01.2021 06:00:00 (CET)List/Sylt, Germany (10020): visibility: 10.01.2021 06:00:00 - 16.01.2021 06:00:00 (CET)List/Sylt, Germany (10020): sunshine duration: 10.01.2021 06:00:00 - 16.01.2021 06:00:00 (CET)List/Sylt, Germany (10020): precipitation: 10.01.2021 06:00:00 - 16.01.2021 06:00:00 (CET)
Date & Time tt [°C] td [°C] tt 5cm [°C] tt -5cm [°C] tt -20cm [°C] ff [km/h] ff [kn] fx [km/h] fx [kn] dd ppp [hPa] vv [km] sd [min] rr [mm]
16.01.2021 06:00:00 1,0 -0,9 0,1 0,3 1,2 - - - - - 1025,3 - 0 0,0
16.01.2021 05:00:00 0,7 -1,6 -0,2 0,3 1,2 - - - - - 1026,1 47 0 0,0
16.01.2021 04:00:00 0,5 -2,2 -0,8 0,3 1,3 - - - - - 1026,5 53 0 0,0
16.01.2021 03:00:00 0,3 -2,8 -0,4 0,3 1,3 - - - - - 1027,3 56 0 0,0
16.01.2021 02:00:00 -0,4 -4,0 -1,8 0,3 1,3 - - - - - 1027,5 60 0 0,0
16.01.2021 01:00:00 -0,9 -4,7 -1,6 0,4 1,3 - - - - - 1028,1 54 0 0,0
16.01.2021 00:00:00 -1,0 -4,5 -2,0 0,4 1,3 - - - - - 1028,6 62 0 0,0
15.01.2021 23:00:00 -1,2 -5,2 -1,9 0,4 1,4 - - - - - 1028,8 52 0 0,0
15.01.2021 22:00:00 -1,1 -5,1 -1,8 0,5 1,4 - - - - - 1028,8 63 0 0,0
15.01.2021 21:00:00 -1,4 -4,6 -2,1 0,5 1,4 - - - - - 1029,0 56 0 0,0
15.01.2021 20:00:00 -1,0 -5,1 -2,4 0,5 1,4 - - - - - 1029,0 68 0 0,0
15.01.2021 19:00:00 -1,3 -6,0 -2,3 0,6 1,4 - - - - - 1029,1 67 0 0,0
15.01.2021 18:00:00 -1,3 -5,6 -1,7 0,6 1,4 - - - - - 1029,1 62 0 0,0
15.01.2021 17:00:00 -1,5 -5,7 -1,6 0,6 1,4 - - - - - 1029,0 58 0 0,0
15.01.2021 16:00:00 -1,2 -6,2 -1,1 0,6 1,4 - - - - - 1029,1 75 0 0,0
15.01.2021 15:00:00 -1,0 -6,8 -0,8 0,5 1,4 - - - - - 1028,9 75 0 0,0
15.01.2021 14:00:00 -0,8 -6,3 -0,2 0,5 1,4 - - - - - 1028,9 63 0 0,0
15.01.2021 13:00:00 -1,1 -7,1 -0,4 0,5 1,5 - - - - - 1028,9 69 0 0,0
15.01.2021 12:00:00 -1,5 -7,2 -1,1 0,5 1,5 - - - - - 1028,8 62 0 0,0
15.01.2021 11:00:00 -1,4 -6,2 -1,2 0,5 1,5 - - - - - 1028,7 57 0 0,0
15.01.2021 10:00:00 -1,6 -6,2 -1,6 0,5 1,5 - - - - - 1028,1 49 0 0,0
15.01.2021 09:00:00 -1,4 -5,9 -1,6 0,6 1,6 - - - - - 1027,6 55 0 0,0
15.01.2021 08:00:00 -1,1 -5,1 -1,3 0,6 1,6 - - - - - 1027,1 46 0 0,0
15.01.2021 07:00:00 -0,8 -5,5 -1,2 0,7 1,6 - - - - - 1026,7 58 0 0,0
15.01.2021 06:00:00 -0,9 -4,5 -1,1 0,7 1,6 - - - - - 1026,3 39 0 0,0
15.01.2021 05:00:00 -1,1 -3,7 -1,3 0,7 1,6 - - - - - 1026,1 31 0 0,0
15.01.2021 04:00:00 -1,1 -3,9 -1,3 0,8 1,6 - - - - - 1025,9 39 0 0,0
15.01.2021 03:00:00 -1,1 -3,4 -1,3 0,8 1,7 - - - - - 1025,8 31 0 0,0
15.01.2021 02:00:00 -1,0 -3,4 -1,0 0,8 1,7 - - - - - 1025,7 26 0 0,0
15.01.2021 01:00:00 -0,8 -3,1 -0,8 0,9 1,7 - - - - - 1025,5 29 0 0,0
15.01.2021 00:00:00 -0,5 -2,7 -0,6 0,9 1,7 - - - - - 1025,3 27 0 0,0
14.01.2021 23:00:00 -0,3 -2,5 -0,5 0,9 1,7 - - - - - 1025,1 29 0 0,0
14.01.2021 22:00:00 -0,1 -2,6 -0,3 0,9 1,7 - - - - - 1024,9 32 0 0,0
14.01.2021 21:00:00 -0,1 -2,3 -0,3 0,9 1,7 - - - - - 1024,4 28 0 0,0
14.01.2021 20:00:00 -0,1 -2,2 -0,3 0,9 1,7 - - - - - 1024,1 28 0 0,0
14.01.2021 19:00:00 -0,1 -2,2 -0,3 0,9 1,7 - - - - - 1023,5 31 0 0,0
14.01.2021 18:00:00 -0,2 -2,1 -0,4 0,9 1,7 - - - - - 1023,9 29 0 0,0
14.01.2021 17:00:00 0,0 -2,2 -0,2 0,8 1,7 - - - - - 1023,7 34 0 0,0
14.01.2021 16:00:00 0,1 -2,4 0,0 0,8 1,7 - - - - - 1023,2 42 0 0,0
14.01.2021 15:00:00 0,0 -2,4 0,1 0,8 1,8 - - - - - 1022,6 40 0 0,0
14.01.2021 14:00:00 -0,1 -2,7 0,1 0,8 1,8 - - - - - 1022,4 43 0 0,0
14.01.2021 13:00:00 -0,2 -3,0 0,1 0,7 1,8 - - - - - 1022,6 51 0 0,0
14.01.2021 12:00:00 -0,6 -3,4 -0,4 0,7 1,8 - - - - - 1022,8 56 0 0,0
14.01.2021 11:00:00 -0,7 -3,8 -0,6 0,7 1,9 - - - - - 1022,6 52 0 0,0
14.01.2021 10:00:00 -0,7 -3,9 -0,7 0,8 1,9 - - - - - 1021,5 56 0 0,0
14.01.2021 09:00:00 -0,8 -4,4 -0,9 0,8 1,9 - - - - - 1020,8 55 0 0,0
14.01.2021 08:00:00 -0,4 -4,0 -0,6 0,8 2,0 - - - - - 1020,1 49 0 0,0
14.01.2021 07:00:00 -0,1 -3,7 -0,3 0,8 2,1 - - - - - 1019,6 61 0 0,0
14.01.2021 06:00:00 0,2 -3,3 -0,2 0,9 2,1 - - - - - 1018,8 57 0 0,0
14.01.2021 05:00:00 -0,3 -3,1 -1,6 1,0 2,2 - - - - - 1018,2 51 0 0,0
14.01.2021 04:00:00 -0,1 -3,0 -1,1 1,1 2,3 - - - - - 1017,0 48 0 0,0
14.01.2021 03:00:00 0,2 -2,4 -0,4 1,2 2,3 - - - - - 1016,4 45 0 0,0
14.01.2021 02:00:00 0,0 -2,4 -0,9 1,3 2,4 - - - - - 1015,1 40 0 0,0
14.01.2021 01:00:00 0,1 -2,5 -0,9 1,4 2,4 - - - - - 1014,3 41 0 0,0
14.01.2021 00:00:00 0,4 -2,9 -0,4 1,5 2,5 - - - - - 1013,4 54 0 0,0
13.01.2021 23:00:00 0,6 -2,4 0,2 1,6 2,5 - - - - - 1012,4 52 0 0,0
13.01.2021 22:00:00 0,5 -2,5 -0,3 1,6 2,6 - - - - - 1011,1 55 0 0,0
13.01.2021 21:00:00 0,8 -2,6 0,4 1,7 2,7 - - - - - 1010,2 53 0 0,0
13.01.2021 20:00:00 1,1 -2,5 0,7 1,8 2,7 - - - - - 1008,9 56 0 0,0
13.01.2021 19:00:00 0,9 -3,0 0,5 1,8 2,8 44 24 55 30 N 1007,6 64 0 0,0
13.01.2021 18:00:00 1,3 -1,0 0,6 1,8 2,9 37 20 60 33 N 1006,7 41 0 0,0
13.01.2021 17:00:00 1,2 -2,6 -0,3 2,0 3,0 37 20 55 30 NNW 1005,7 41 0 0,0
13.01.2021 16:00:00 1,3 -2,1 0,2 2,4 3,0 40 21 64 34 NNW 1005,0 46 6 0,0
13.01.2021 15:00:00 1,4 -1,5 0,8 2,7 3,0 42 23 64 35 NNW 1003,8 46 10 0,0
13.01.2021 14:00:00 2,2 -0,1 2,0 2,8 3,0 - - - - - 1002,8 36 46 0,0
13.01.2021 13:00:00 3,8 -0,8 3,0 2,8 3,0 - - - - - 1001,0 30 28 0,0
13.01.2021 12:00:00 4,1 1,8 3,3 2,7 2,9 - - - - - 1000,8 15 0 0,0
13.01.2021 11:00:00 1,9 0,6 1,8 2,6 2,9 61 33 115 62 NW 1001,2 7 0 1,4
13.01.2021 10:00:00 4,5 1,5 3,5 2,5 2,9 51 27 85 46 WNW 1001,4 19 0 0,1
13.01.2021 09:00:00 5,1 1,2 4,0 2,3 2,9 - - - - - 1001,8 15 0 0,0
13.01.2021 08:00:00 3,9 1,1 2,5 2,3 2,9 - - - - - 1002,7 19 0 0,0
13.01.2021 07:00:00 3,1 1,2 1,7 2,4 2,9 - - 75 41 - 1003,8 19 0 0,0
13.01.2021 06:00:00 4,0 1,3 3,0 2,4 2,9 - - - - - 1003,7 21 0 0,0
13.01.2021 05:00:00 4,4 0,9 3,0 2,4 2,9 - - - - - 1004,2 24 0 0,0
13.01.2021 04:00:00 3,9 1,6 2,4 2,3 3,0 - - - - - 1004,7 19 0 0,0
13.01.2021 03:00:00 3,7 0,4 2,2 2,3 3,0 - - - - - 1004,6 29 0 0,0
13.01.2021 02:00:00 3,6 -0,3 1,9 2,3 3,0 - - - - - 1004,8 31 0 0,2
13.01.2021 01:00:00 2,7 0,0 1,4 2,3 3,1 - - - - - 1005,1 26 0 0,0
13.01.2021 00:00:00 3,4 -0,4 1,5 2,3 3,1 - - - - - 1005,0 35 0 0,7
12.01.2021 23:00:00 4,3 0,4 3,0 2,4 3,1 - - - - - 1004,7 25 0 0,0
12.01.2021 22:00:00 4,0 0,1 2,5 2,5 3,2 - - - - - 1004,5 27 0 0,1
12.01.2021 21:00:00 3,8 0,7 2,4 2,5 3,2 - - - - - 1004,5 22 0 0,1
12.01.2021 20:00:00 4,2 -0,1 3,0 2,6 3,3 - - - - - 1003,7 29 0 0,0
12.01.2021 19:00:00 3,8 -0,8 2,0 2,7 3,3 - - - - - 1003,2 33 0 0,0
12.01.2021 18:00:00 4,1 -1,2 2,2 2,7 3,4 - - - - - 1003,0 26 0 0,0
12.01.2021 17:00:00 3,6 -0,1 1,7 2,9 3,4 - - - - - 1002,4 28 0 0,0
12.01.2021 16:00:00 3,0 0,8 2,0 3,1 3,4 - - - - - 1001,9 26 11 0,0
12.01.2021 15:00:00 4,1 -0,6 2,8 3,1 3,4 - - - - - 1000,8 39 46 0,0
12.01.2021 14:00:00 3,3 1,8 3,2 3,0 3,5 - - - - - 1000,3 49 14 0,8
12.01.2021 13:00:00 1,6 0,4 1,0 3,2 3,4 36 19 - - W 1000,1 4,3 20 0,3
12.01.2021 12:00:00 3,6 1,2 2,7 3,1 3,4 - - 53 29 - 999,9 31 16 0,0
12.01.2021 11:00:00 4,2 0,4 3,4 2,7 3,4 - - - - - 999,8 37 19 0,0
12.01.2021 10:00:00 3,6 -0,1 2,5 2,5 3,5 - - - - - 999,8 47 0 0,0
12.01.2021 09:00:00 3,4 -0,5 1,6 2,6 3,7 - - - - - 1000,0 32 0 0,0
12.01.2021 08:00:00 2,9 -0,7 0,4 2,8 3,8 - - 30 16 - 999,8 35 0 0,0
12.01.2021 07:00:00 2,7 -0,8 0,6 3,1 3,9 15 8 27 14 NW 999,5 25 0 0,0
12.01.2021 06:00:00 2,9 0,4 1,0 3,3 4,1 15 8 26 14 NW 999,4 23 0 0,0
12.01.2021 05:00:00 3,0 0,3 1,4 3,8 4,2 24 13 42 23 NNW 999,1 27 0 0,0
12.01.2021 04:00:00 4,2 1,0 2,9 4,1 4,2 33 18 44 24 NW 998,6 27 0 0,0
12.01.2021 03:00:00 4,4 3,1 3,8 4,3 4,3 24 13 49 26 NNW 998,3 20 0 0,1
12.01.2021 02:00:00 4,3 3,2 3,7 4,5 4,3 23 12 41 22 NW 997,6 15 0 0,0
12.01.2021 01:00:00 4,2 3,7 3,9 4,8 4,2 36 20 61 33 NNW 996,6 18 0 0,6
12.01.2021 00:00:00 6,7 6,5 6,5 4,8 4,1 41 22 63 34 WSW 995,6 2,1 0 0,6
11.01.2021 23:00:00 6,5 6,2 6,3 4,7 4,1 39 21 66 35 WSW 996,2 3,1 0 1,4
11.01.2021 22:00:00 6,1 5,8 5,9 4,6 4,0 44 24 66 36 SW 997,2 1,9 0 0,4
11.01.2021 21:00:00 6,0 5,7 5,8 4,5 4,0 41 22 64 35 SW 998,5 3,0 0 0,4
11.01.2021 20:00:00 5,7 5,3 5,6 4,4 3,9 42 23 60 33 SW 999,7 1,9 0 0,3
11.01.2021 19:00:00 5,7 5,1 5,4 4,4 3,9 39 21 57 31 SW 1000,6 2,9 0 0,0
11.01.2021 18:00:00 6,0 4,8 5,4 4,4 3,8 39 21 63 34 SW 1001,5 13 0 0,0
11.01.2021 17:00:00 6,0 5,5 5,4 4,4 3,8 37 20 59 32 SW 1002,5 10 0 0,5
11.01.2021 16:00:00 5,6 5,2 5,5 4,3 3,7 38 20 61 33 SW 1003,2 4,0 0 0,5
11.01.2021 15:00:00 5,7 5,1 5,4 4,3 3,6 42 23 58 32 SW 1003,8 4,5 0 0,4
11.01.2021 14:00:00 5,6 5,1 5,5 4,3 3,5 37 20 57 31 SW 1005,1 7 0 0,0
11.01.2021 13:00:00 5,7 4,6 5,3 4,2 3,4 42 23 58 32 SW 1006,1 14 0 0,0
11.01.2021 12:00:00 5,9 5,1 5,7 4,0 3,3 33 18 54 29 SW 1007,5 12 0 0,0
11.01.2021 11:00:00 5,7 4,6 5,2 3,8 3,2 40 22 54 29 SW 1008,2 17 0 0,3
11.01.2021 10:00:00 5,6 4,6 5,1 3,7 3,1 35 19 48 26 SW 1008,7 13 0 0,0
11.01.2021 09:00:00 6,0 5,1 5,4 3,6 3,0 32 17 47 25 WSW 1008,9 15 0 0,2
11.01.2021 08:00:00 5,8 5,4 5,5 3,4 2,9 30 16 46 25 WSW 1009,3 6 0 0,5
11.01.2021 07:00:00 5,7 5,2 5,3 3,3 2,8 33 18 53 28 WSW 1009,9 8 0 0,6
11.01.2021 06:00:00 5,7 5,2 5,2 3,1 2,7 28 15 50 27 SW 1010,5 9 0 0,3
11.01.2021 05:00:00 5,1 4,5 4,6 2,9 2,7 32 17 48 26 SW 1011,5 13 0 0,7
11.01.2021 04:00:00 4,6 4,1 4,2 2,7 2,6 32 17 40 21 SSW 1012,7 13 0 1,2
11.01.2021 03:00:00 4,4 3,4 3,8 2,4 2,5 29 16 37 20 SW 1013,7 11 0 0,5
11.01.2021 02:00:00 4,5 3,0 3,7 2,2 2,5 20 11 31 17 SW 1014,3 16 0 0,0
11.01.2021 01:00:00 4,5 2,2 3,3 2,0 2,5 20 11 29 15 SW 1015,0 25 0 0,0
11.01.2021 00:00:00 3,6 1,5 1,9 2,0 2,6 19 10 24 13 WSW 1015,6 26 0 0,0
10.01.2021 23:00:00 3,7 2,1 2,3 2,2 2,6 11 6 19 10 WSW 1016,2 27 0 0,0
10.01.2021 22:00:00 2,9 2,0 1,7 2,3 2,6 14 8 21 11 WSW 1016,5 23 0 0,1
10.01.2021 21:00:00 3,3 1,9 2,5 2,4 2,6 8 5 20 11 W 1016,7 38 0 0,0
10.01.2021 20:00:00 2,8 2,5 2,5 2,4 2,6 12 6 22 12 SW 1016,8 15 0 0,1
10.01.2021 19:00:00 2,6 2,2 2,4 2,3 2,6 11 6 18 10 W 1017,0 3,6 0 0,1
10.01.2021 18:00:00 1,9 1,5 1,4 2,3 2,6 10 5 17 9 SSW 1016,9 9 0 0,0
10.01.2021 17:00:00 1,8 1,4 1,0 2,7 2,6 - - - - - 1016,9 1,3 0 0,0
10.01.2021 16:00:00 2,7 2,4 2,7 2,8 2,5 3 1 11 6 ESE 1016,8 14 0 0,3
10.01.2021 15:00:00 2,8 2,2 2,9 2,8 2,4 10 5 21 11 NNE 1016,8 7 0 1,1
10.01.2021 14:00:00 3,2 2,9 3,2 2,7 2,3 20 11 49 27 N 1017,0 5 0 2,0
10.01.2021 13:00:00 4,6 4,1 4,5 2,5 2,1 34 18 52 28 SW 1017,1 7 0 0,2
10.01.2021 12:00:00 4,6 3,8 4,3 2,2 2,0 34 18 49 26 SW 1017,7 9 0 0,0
10.01.2021 11:00:00 4,4 3,5 4,0 1,9 1,9 33 18 - - SW 1018,2 10 0 0,3
10.01.2021 10:00:00 4,0 2,9 3,4 1,5 1,9 - - - - - 1018,5 15 0 0,0
10.01.2021 09:00:00 3,4 2,6 2,8 1,3 1,9 - - - - - 1018,8 12 0 0,0
10.01.2021 08:00:00 2,8 2,2 2,2 1,3 1,9 - - - - - 1018,8 13 0 0,0
10.01.2021 07:00:00 2,5 1,7 1,9 1,3 1,9 - - - - - 1019,1 12 0 0,0
10.01.2021 06:00:00 2,5 1,6 1,7 1,2 1,9 - - - - - 1019,5 19 0 0,0

tt = temperature
td = dewpoint
tt 5cm = temperature 5cm
tt -5cm = temperature -5cm
tt -20cm = temperature -20cm
ff = wind speed
fx = gusts
dd = wind direction
ppp = reduced air pressure
vv = visibility
sd = sunshine duration
rr = precipitation

Next stations